Home   Weather   Corrientes   Past weeks

Flag for Argentina Past Weather in Corrientes, Corrientes, Argentina — Yesterday and Last 2 Weeks

Now
79 °F

Passing clouds.


Feels Like: 82 °F
Forecast: 70 / 83 °F
Wind: 1 mph from North

Location: Resistencia Aero.

Current Time: Dec 7, 2016 at 11:11:00 pm

Latest Report: Dec 7, 2016 at 10:00 pm


Visibility: N/A

Pressure: 29.71 "Hg

Humidity: 84%

Dew Point: 73 °F

Location of CorrientesLocation

Past Weather in Corrientes — Graph

°F

Corrientes Temperature Yesterday

Maximum temperature yesterday: 84 °F (at 3:00 pm)
Minimum temperature yesterday: 73 °F (at 3:00 am)
Average temperature yesterday: 77 °F

High & Low Weather Summary for the Past Weeks

 TemperatureHumidityPressure
High99 °F (Nov 26, 3:00 pm)100% (Nov 23, 4:00 am)30.09 "Hg (Nov 23, 4:00 am)
Low55 °F (Nov 23, 4:00 am)27% (Nov 24, 1:00 pm)29.59 "Hg (Nov 26, 6:00 pm)
Average77 °F73%29.83 "Hg
* Reported Nov 22 10:00 pm — Dec 7 10:00 pm, Corrientes, Weather by CustomWeather, © 2016

Note: Actual official high and low records may vary slightly from our data, if they occured in-between our weather recording intervals... More about our weather records

Advertising

Corrientes Weather History for the Previous 24 Hours

Scroll right to see more
 ConditionsComfort  
Time TempWeatherWind HumidityBarometerVisibility
10:00 pm
Wed, Dec 7
79 °FPassing clouds.1 mph84%29.71 "HgN/A
9:00 pm81 °FPartly cloudy.5 mph79%29.68 "HgN/A
8:00 pm84 °FOvercast.5 mph66%29.68 "HgN/A
7:00 pm84 °FBroken clouds.6 mph62%29.65 "HgN/A
6:00 pm88 °FSunny.10 mph49%29.68 "Hg10 mi
5:00 pm88 °FScattered clouds.9 mph49%29.68 "HgN/A
4:00 pm90 °FPassing clouds.12 mph46%29.68 "HgN/A
3:00 pm88 °FPassing clouds.10 mph49%29.71 "HgN/A
2:00 pm90 °FPassing clouds.8 mph52%29.77 "HgN/A
1:00 pm88 °FPassing clouds.8 mph55%29.77 "HgN/A
12:00 pm86 °FPassing clouds.N/A59%29.77 "HgN/A
11:00 am84 °FPassing clouds.9 mph58%29.77 "HgN/A
10:00 am84 °FSunny.9 mph58%29.77 "Hg10 mi
9:00 am82 °FSunny.6 mph58%29.80 "Hg10 mi
8:00 am77 °FClear.1 mph83%29.80 "Hg5 mi
7:00 am72 °FClear.2 mph94%29.77 "Hg4 mi
6:00 am66 °FFog.3 mph100%29.77 "Hg3 mi
5:00 am68 °FFog.2 mph100%29.74 "Hg3 mi
4:00 am68 °FFog.No wind100%29.74 "Hg1 mi
3:07 am68 °FFog.1 mph100%29.77 "Hg2 mi
3:00 am68 °FClear.1 mph100%29.77 "Hg4 mi
2:00 am70 °FClear.1 mph100%29.80 "Hg5 mi
1:00 am72 °FClear.3 mph94%29.80 "Hg5 mi
12:00 am70 °FClear.3 mph94%29.80 "Hg10 mi
11:00 pm
Tue, Dec 6
73 °FClear.1 mph83%29.80 "Hg10 mi
Weather by CustomWeather, © 2016

See weather overviewHow to use our weather pages